Regional Weather Roundup
Issued by NWS Nashville, TN

Home | Current Version | Previous Version | Text Only | Print | Product List | Glossary On
Versions: 1 2 3 4 5 6 7 8 9 10 11 12 13 14 15 16 17 18 19 20 21 22 23 24 25 26 27 28 29 30 31 32 33 34 35 36 37 38 39 40 41 42 43 44 45 46 47 48 49 50
000
ASUS44 KOHX 071810
RWROHX
MIDDLE TENNESSEE HOURLY WEATHER ROUNDUP
NATIONAL WEATHER SERVICE NASHVILLE TN
1200 PM CST WED DEC 07 2016

NOTE: "FAIR" INDICATES FEW OR NO CLOUDS BELOW 12,000 FEET WITH
NO SIGNIFICANT WEATHER AND/OR OBSTRUCTIONS TO VISIBILITY.

* THESE REPORTS ARE NOT UNDER NWS QUALITY CONTROL AND MAY NOT
  REPORT WEATHER SUCH AS PRECIPITATION AND FOG.


TNZ005>011-023>034-057-059-062>066-078-080-071900
...NORTHERN MIDDLE TENNESSEE...

CITY           SKY/WX    TMP DP  RH WIND       PRES   REMARKS
CLARKSVILLE    SUNNY     44  30  57 N6        30.16F
CROSSVILLE     PTSUNNY   42  34  73 N7        30.06F
GALLATIN       MOSUNNY   45  32  61 VRB3      30.17F
LEBANON        MOSUNNY   42  34  73 NE6       30.12F
NASHVILLE      PTSUNNY   48  33  56 VRB7      30.15F
PORTLAND       SUNNY     43  32  65 NE7G13    30.14F
SMYRNA         PTSUNNY   43  34  70 N5        30.16F
SPRINGFIELD    MOSUNNY   41  32  70 NE6       30.15F
WEST NASHVILLE PTSUNNY   45  32  61 NW6       30.14F
$$
TNZ056-058-060-061-075>077-079-093>097-071900
...SOUTHERN MIDDLE TENNESSEE...

CITY           SKY/WX    TMP DP  RH WIND       PRES   REMARKS
COLUMBIA       CLOUDY    43  39  87 N6        30.12F
FAYETTEVILLE   CLOUDY    41  36  81 NW3       30.11F
MCMINNVILLE    CLOUDY    41  36  81 N7          N/A
MURFREESBORO   CLOUDY    42  33  70 N10       30.14F
SHELBYVILLE    CLOUDY    43  37  81 N7        30.13F
TULLAHOMA      CLOUDY    39  36  87 N7        30.10F WCI  34
WINCHESTER     CLOUDY    43  36  75 N3        30.10S
$$


...KEY TO REMARKS...
VSB - VISIBILITY IN MILES
WCI - WIND CHILL INDEX
HX  - HEAT INDEX




USA.gov is the U.S. government's official web portal to all federal, state and local government web resources and services.